Fergus Falls, MN

7:03 AM CST on December 06, 2016 (GMT -0600)
Fergus Falls Municipal-Mickelson

Weather History for KFFM - March, 2013

Change the Weather History Date:

Sunday, March 10, 2013

  Actual Average Record
Temperature  
Mean Temperature 18 °F -  
Max Temperature 24 °F 33 °F 53 °F (2015)
Min Temperature 12 °F 15 °F -13 °F (1979)
Degree Days  
Heating Degree Days 47    
Moisture  
Dew Point 15 °F    
Average Humidity 84    
Maximum Humidity 93    
Minimum Humidity 74    
Precipitation  
Precipitation 0.00 in - - ()
Sea Level Pressure  
Sea Level Pressure 30.05 in    
Wind  
Wind Speed 17 mph (North)    
Max Wind Speed 26 mph    
Max Gust Speed 36 mph    
Visibility 8 miles    
Events      
Averages and records for this station are not official NWS values.
T = Trace of Precipitation, MM = Missing Value Source: NWS Daily Summary

Daily Weather History Graph

Daily Weather History Graph

Search for Another Location

Airport or City:

Trip Planner

Search our weather history database for the weather conditions in past years. The results will help you decide how hot, cold, wet, or windy it might be!

Date:

Astronomy

Mar. 10, 2013 Rise Set
Actual Time 7:46 AM CDT 7:23 PM CDT
Civil Twilight 7:16 AM CDT 7:53 PM CDT
Nautical Twilight 6:41 AM CDT 8:28 PM CDT
Astronomical Twilight 6:06 AM CDT 9:04 PM CDT
Moon 6:49 AM CDT (3/10) 6:32 PM CDT (3/10)
Length of Visible Light 12h 37m
Length of Day
11h 37m
Waning Crescent, 2% of the Moon is Illuminated
Mar 10
Waning Crescent
Mar 11
New
Mar 19
First Quarter
Mar 27
Full
Apr 2
Last Quarter

Hourly Weather History & Observations

Time (CDT) Temp. Windchill Dew Point Humidity Pressure Visibility Wind Dir Wind Speed Gust Speed Precip Events Conditions
12:13 AM 24.8 °F 10.3 °F 21.2 °F 86% 29.93 in 7.0 mi NNW 20.7 mph 25.3 mph N/A   Overcast
12:33 AM 23.0 °F 6.3 °F 19.4 °F 86% 29.93 in 7.0 mi North 26.5 mph 33.4 mph N/A   Overcast
12:53 AM 23.0 °F 7.2 °F 19.4 °F 86% 29.93 in 4.0 mi North 23.0 mph 35.7 mph N/A   Overcast
1:13 AM 23.0 °F 8.3 °F 19.4 °F 86% 29.94 in 5.0 mi North 19.6 mph 31.1 mph N/A   Overcast
1:33 AM 21.2 °F 5.6 °F 19.4 °F 93% 29.94 in 5.0 mi North 20.7 mph 33.4 mph N/A   Overcast
1:53 AM 21.2 °F 6.4 °F 19.4 °F 93% 29.96 in 4.0 mi North 18.4 mph 31.1 mph N/A   Overcast
3:13 AM 21.2 °F 7.3 °F 19.4 °F 93% 29.97 in 5.0 mi North 16.1 mph 32.2 mph N/A   Overcast
3:33 AM 21.2 °F 6.8 °F 19.4 °F 93% 29.97 in 7.0 mi North 17.3 mph 32.2 mph N/A   Overcast
3:53 AM 21.2 °F 5.6 °F 17.6 °F 86% 29.97 in 7.0 mi North 20.7 mph 29.9 mph N/A   Overcast
4:13 AM 21.2 °F 8.3 °F 17.6 °F 86% 29.97 in 7.0 mi North 13.8 mph 25.3 mph N/A   Overcast
4:33 AM 21.2 °F 9.5 °F 17.6 °F 86% 29.97 in 7.0 mi North 11.5 mph 24.2 mph N/A   Overcast
4:53 AM 21.2 °F 5.2 °F 17.6 °F 86% 29.96 in 7.0 mi North 21.9 mph 29.9 mph N/A   Overcast
5:13 AM 21.2 °F 5.6 °F 17.6 °F 86% 29.97 in 7.0 mi North 20.7 mph 29.9 mph N/A   Overcast
5:33 AM 21.2 °F 6.0 °F 17.6 °F 86% 29.98 in 7.0 mi North 19.6 mph 29.9 mph N/A   Overcast
5:53 AM 21.2 °F 8.3 °F 17.6 °F 86% 30.00 in 7.0 mi North 13.8 mph 25.3 mph N/A   Overcast
6:13 AM 21.2 °F 5.6 °F 17.6 °F 86% 30.01 in 7.0 mi North 20.7 mph 29.9 mph N/A   Overcast
6:53 AM 21.2 °F 4.9 °F 17.6 °F 86% 30.04 in 7.0 mi North 23.0 mph 28.8 mph N/A   Overcast
7:33 AM 21.2 °F 6.8 °F 17.6 °F 86% 30.06 in 4.0 mi North 17.3 mph 29.9 mph N/A   Overcast
7:53 AM 21.2 °F 7.8 °F 17.6 °F 86% 30.07 in 4.0 mi North 15.0 mph 27.6 mph N/A   Overcast
8:13 AM 19.4 °F 5.5 °F 17.6 °F 93% 30.07 in 4.0 mi North 15.0 mph 25.3 mph N/A   Overcast
8:33 AM 19.4 °F 5.0 °F 17.6 °F 93% 30.07 in 4.0 mi North 16.1 mph 26.5 mph N/A   Overcast
8:53 AM 21.2 °F 9.5 °F 17.6 °F 86% 30.07 in 5.0 mi North 11.5 mph 23.0 mph N/A   Overcast
9:13 AM 21.2 °F 10.1 °F 17.6 °F 86% 30.08 in 7.0 mi North 10.4 mph 21.9 mph N/A   Overcast
9:33 AM 21.2 °F 9.5 °F 17.6 °F 86% 30.09 in 5.0 mi North 11.5 mph 21.9 mph N/A   Overcast
9:53 AM 21.2 °F 6.4 °F 17.6 °F 86% 30.10 in 5.0 mi North 18.4 mph 24.2 mph N/A   Overcast
10:13 AM 21.2 °F 8.9 °F 17.6 °F 86% 30.10 in 10.0 mi North 12.7 mph 21.9 mph N/A   Overcast
10:33 AM 21.2 °F 6.4 °F 17.6 °F 86% 30.10 in 10.0 mi North 18.4 mph 24.2 mph N/A   Overcast
10:53 AM 21.2 °F 7.8 °F 17.6 °F 86% 30.11 in 10.0 mi North 15.0 mph 24.2 mph N/A   Overcast
11:13 AM 21.2 °F 6.8 °F 17.6 °F 86% 30.11 in 10.0 mi North 17.3 mph - N/A   Overcast
11:33 AM 21.2 °F 6.8 °F 17.6 °F 86% 30.11 in 10.0 mi North 17.3 mph 25.3 mph N/A   Overcast
11:53 AM 21.2 °F 7.3 °F 15.8 °F 80% 30.10 in 5.0 mi North 16.1 mph 26.5 mph N/A   Haze
12:13 PM 21.2 °F 7.8 °F 15.8 °F 80% 30.10 in 10.0 mi North 15.0 mph 20.7 mph N/A   Overcast
12:33 PM 21.2 °F 6.8 °F 15.8 °F 80% 30.10 in 7.0 mi North 17.3 mph 24.2 mph N/A   Overcast
12:52 PM 21.2 °F 7.8 °F 15.8 °F 80% 30.12 in 10.0 mi North 15.0 mph 20.7 mph N/A   Overcast
1:13 PM 23.0 °F 11.7 °F 15.8 °F 74% 30.13 in 10.0 mi NNE 11.5 mph 20.7 mph N/A   Overcast
1:33 PM 24.8 °F 14.6 °F 17.6 °F 74% 30.13 in 10.0 mi North 10.4 mph - N/A   Overcast
1:53 PM 24.8 °F 13.4 °F 17.6 °F 74% 30.10 in 10.0 mi North 12.7 mph 18.4 mph N/A   Overcast
2:13 PM 24.8 °F 12.9 °F 17.6 °F 74% 30.07 in 10.0 mi North 13.8 mph 25.3 mph N/A   Overcast
2:33 PM 24.8 °F 11.9 °F 17.6 °F 74% 30.07 in 7.0 mi North 16.1 mph 31.1 mph N/A   Overcast
2:53 PM 23.0 °F 11.1 °F 17.6 °F 80% 30.08 in 10.0 mi North 12.7 mph 24.2 mph N/A   Overcast
3:13 PM 23.0 °F 9.6 °F 17.6 °F 80% 30.07 in 10.0 mi North 16.1 mph 31.1 mph N/A   Overcast
3:33 PM 21.2 °F 5.2 °F 17.6 °F 86% 30.08 in 10.0 mi NNW 21.9 mph 28.8 mph N/A   Overcast
3:53 PM 21.2 °F 7.3 °F 17.6 °F 86% 30.10 in 10.0 mi North 16.1 mph 21.9 mph N/A   Overcast
4:13 PM 21.2 °F 4.5 °F 15.8 °F 80% 30.09 in 10.0 mi NNW 24.2 mph 29.9 mph N/A   Overcast
4:33 PM 21.2 °F 6.4 °F 17.6 °F 86% 30.09 in 10.0 mi North 18.4 mph 29.9 mph N/A   Overcast
4:53 PM 21.2 °F 5.6 °F 15.8 °F 80% 30.08 in 10.0 mi North 20.7 mph 27.6 mph N/A   Overcast
5:13 PM 19.4 °F 5.0 °F 15.8 °F 86% 30.07 in 10.0 mi North 16.1 mph 28.8 mph N/A   Overcast
5:33 PM 19.4 °F 5.5 °F 15.8 °F 86% 30.06 in 10.0 mi North 15.0 mph 25.3 mph N/A   Overcast
5:53 PM 19.4 °F 5.0 °F 15.8 °F 86% 30.06 in 10.0 mi NNW 16.1 mph - N/A   Scattered Clouds
6:13 PM 19.4 °F 4.1 °F 15.8 °F 86% 30.05 in 10.0 mi NNW 18.4 mph - N/A   Clear
6:33 PM 19.4 °F 4.1 °F 14.0 °F 80% 30.06 in 10.0 mi NNW 18.4 mph 25.3 mph N/A   Clear
6:53 PM 17.6 °F 1.7 °F 12.2 °F 79% 30.06 in 10.0 mi NNW 18.4 mph - N/A   Clear
7:13 PM 17.6 °F 0.9 °F 12.2 °F 79% 30.07 in 10.0 mi NNW 20.7 mph 26.5 mph N/A   Clear
7:33 PM 15.8 °F -0.6 °F 12.2 °F 86% 30.07 in 10.0 mi North 18.4 mph 26.5 mph N/A   Clear
7:53 PM 15.8 °F -0.2 °F 12.2 °F 86% 30.08 in 10.0 mi North 17.3 mph 26.5 mph N/A   Clear
8:13 PM 15.8 °F 1.4 °F 10.4 °F 79% 30.08 in 10.0 mi North 13.8 mph 21.9 mph N/A   Clear
8:33 PM 15.8 °F 1.4 °F 10.4 °F 79% 30.07 in 10.0 mi North 13.8 mph 19.6 mph N/A   Clear
8:53 PM 15.8 °F 0.9 °F 10.4 °F 79% 30.07 in 10.0 mi North 15.0 mph 21.9 mph N/A   Clear
9:13 PM 14.0 °F 0.5 °F 10.4 °F 86% 30.07 in 10.0 mi North 11.5 mph 19.6 mph N/A   Clear
9:33 PM 14.0 °F 2.9 °F 10.4 °F 86% 30.06 in 10.0 mi North 8.1 mph - N/A   Clear
10:13 PM 12.2 °F 0.7 °F 8.6 °F 85% 30.07 in 10.0 mi North 8.1 mph - N/A   Clear
10:53 PM 12.2 °F -1.0 °F 8.6 °F 85% 30.07 in 10.0 mi North 10.4 mph 17.3 mph N/A   Clear
11:13 PM 12.2 °F -1.0 °F 6.8 °F 79% 30.06 in 10.0 mi North 10.4 mph - N/A   Clear
11:32 PM 12.2 °F -1.8 °F 6.8 °F 79% 30.05 in 10.0 mi North 11.5 mph 16.1 mph N/A   Clear
11:53 PM 12.2 °F -1.8 °F 6.8 °F 79% 30.04 in 10.0 mi North 11.5 mph - N/A   Clear
12:13 AM 12.2 °F -0.2 °F 6.8 °F 79% 30.03 in 10.0 mi North 9.2 mph - N/A   Clear
12:33 AM 12.2 °F -0.2 °F 6.8 °F 79% 30.02 in 10.0 mi NNE 9.2 mph - N/A   Clear
12:53 AM 12.2 °F 4.3 °F 6.8 °F 79% 30.02 in 10.0 mi NE 4.6 mph - N/A   Clear